sat.trackr.live / text

‹ back to catalog

SCORPION (RS89S)

NORAD 67293 · 2025-313AX

PAYLOAD ACTIVE UNKNOWN

§ Identity

Operator
Country
CIS
Launch date
2025-12-28
Launch site
VOSTO
Launch vehicle
Mass (kg)
RCS (m²)

External: N2YO · Heavens-Above · Gunter

§ Orbital elements

Epoch: 2026-09-20T22:24:48.386304Z

Period
94.52 min
Inclination
97.3860°
Eccentricity
0.0011224
Mean motion
15.23410230 rev/d
Perigee alt
487.8 km
Apogee alt
503.3 km
Semi-major
6,873.7 km
B*
9.5802e-5
RAAN
337.1990°
Arg perigee
20.3213°
Mean anomaly
339.8468°
Rev number
4,053

§ Raw data

SCORPION (RS89S)1 67293U 25313AX  26263.93389336  .00002213  00000+0  95802-4 0  99992 67293  97.3860 337.1990 0011224  20.3213 339.8468 15.23410230 40539

JSON: /api/v1/satellites/67293 · /tle

For live sub-satellite position, see the globe view (requires WebGL).

§ Visibility from observer

Set your observer location to see the next 7 days of passes ≥ 10°. The values pass through the URL so the page stays shareable.

No JS? Fill the form by hand. The geolocation button needs JavaScript.